Weather History for KEPH - November, 2012

Change the Weather History Date:

Sunday, November 4, 2012

  Actual Average Record
Temperature  
Mean Temperature 52 °F 42 °F  
Max Temperature 58 °F 51 °F 69 °F (2007)
Min Temperature 46 °F 32 °F 3 °F (1973)
Degree Days  
Heating Degree Days 13 23  
Month to date heating degree days 61 90  
Since 1 July heating degree days 556 671  
Cooling Degree Days 0 0  
Month to date cooling degree days 0 0  
Year to date cooling degree days 837 772  
Growing Degree Days 2 (Base 50)    
Moisture  
Dew Point 47 °F    
Average Humidity 83    
Maximum Humidity 93    
Minimum Humidity 72    
Precipitation  
Precipitation 0.00 in 0.03 in 0.25 in (1973)
Month to date precipitation 0.05 0.11  
Year to date precipitation 5.91 5.66  
Sea Level Pressure  
Sea Level Pressure 30.24 in    
Wind  
Wind Speed 4 mph (North)    
Max Wind Speed 9 mph    
Max Gust Speed 12 mph    
Visibility 9 miles    
Events      
T = Trace of Precipitation, MM = Missing Value Source: NWS Daily Summary

Daily Weather History Graph

Daily Weather History Graph

Search for Another Location

Airport or City:

Trip Planner

Search our weather history database for the weather conditions in past years. The results will help you decide how hot, cold, wet, or windy it might be!

Date:

Astronomy

Nov. 04, 2012 Rise Set
Actual Time 6:46 AM PST 4:35 PM PST
Civil Twilight 6:14 AM PST 5:08 PM PST
Nautical Twilight 5:38 AM PST 5:44 PM PST
Astronomical Twilight 5:02 AM PST 6:20 PM PST
Moon 9:15 PM PST (11/4) 11:37 AM PST (11/4)
Length of Visible Light 10h 53m
Length of Day
9h 49m
Waning Gibbous, 71% of the Moon is Illuminated
Nov 4
Waning Gibbous
Nov 6
Last Quarter
Nov 13
New
Nov 20
First Quarter
Nov 28
Full

Hourly Weather History & Observations

Time (PST) Temp. Dew Point Humidity Pressure Visibility Wind Dir Wind Speed Gust Speed Precip Events Conditions
12:53 AM 50.0 °F 48.0 °F 93% 30.17 in 7.0 mi Calm Calm - N/A   Mostly Cloudy
1:53 AM 48.9 °F 46.9 °F 93% 30.18 in 7.0 mi Calm Calm - N/A   Mostly Cloudy
1:53 AM 48.9 °F 46.9 °F 93% 30.18 in 7.0 mi West 3.5 mph - N/A   Overcast
2:53 AM 48.9 °F 46.0 °F 90% 30.18 in 10.0 mi SW 3.5 mph - N/A   Overcast
3:53 AM 48.0 °F 46.0 °F 93% 30.20 in 7.0 mi East 5.8 mph - N/A   Overcast
4:53 AM 48.9 °F 46.0 °F 90% 30.20 in 8.0 mi Calm Calm - N/A   Overcast
5:53 AM 46.9 °F 45.0 °F 93% 30.22 in 8.0 mi North 8.1 mph - N/A   Overcast
6:53 AM 48.9 °F 46.9 °F 93% 30.25 in 6.0 mi North 5.8 mph - N/A   Overcast
7:53 AM 50.0 °F 46.9 °F 89% 30.27 in 7.0 mi NNE 5.8 mph - N/A   Mostly Cloudy
8:53 AM 51.1 °F 46.9 °F 86% 30.27 in 10.0 mi NE 4.6 mph - N/A   Clear
9:53 AM 52.0 °F 46.9 °F 83% 30.28 in 10.0 mi North 5.8 mph - N/A   Clear
10:53 AM 53.1 °F 48.0 °F 83% 30.28 in 10.0 mi NE 5.8 mph - N/A   Clear
11:53 AM 54.0 °F 48.0 °F 80% 30.28 in 10.0 mi North 6.9 mph - N/A   Clear
12:53 PM 55.9 °F 48.9 °F 77% 30.27 in 10.0 mi North 4.6 mph - N/A   Clear
1:53 PM 55.9 °F 48.9 °F 77% 30.27 in 10.0 mi North 5.8 mph - N/A   Clear
2:53 PM 57.9 °F 48.9 °F 72% 30.27 in 10.0 mi Calm Calm - N/A   Clear
3:53 PM 57.0 °F 50.0 °F 77% 30.27 in 10.0 mi NNE 3.5 mph - N/A   Clear
4:53 PM 54.0 °F 48.9 °F 83% 30.26 in 10.0 mi NW 4.6 mph - N/A   Clear
5:53 PM 52.0 °F 48.0 °F 86% 30.25 in 8.0 mi Calm Calm - N/A   Clear
6:53 PM 50.0 °F 48.0 °F 93% 30.26 in 10.0 mi NNE 3.5 mph - N/A   Clear
7:53 PM 50.0 °F 48.0 °F 93% 30.25 in 10.0 mi NNE 3.5 mph - N/A   Clear
8:53 PM 48.0 °F 46.9 °F 96% 30.24 in 10.0 mi Calm Calm - N/A   Clear
9:53 PM 48.0 °F 46.0 °F 93% 30.25 in 8.0 mi NNE 4.6 mph - N/A   Clear
10:53 PM 48.0 °F 45.0 °F 89% 30.23 in 8.0 mi NNW 4.6 mph - N/A   Clear